Location: Brachstadt
(48.6975°N, 10.6755°E)
Time: 23:25:06
(UTC+00:00)

Tsikada Rocket - Pass Details

Date: 18 September 2020
Orbit: 958 x 1009 km, 82.9° (Epoch: 31 October)

Event Time Altitude Azimuth Distance (km) Brightness Sun altitude
Rises 17:53:44 0° 348° (NNW) 3,658 7.3 -5.9°
Reaches altitude 10° 17:56:15 10° 347° (NNW) 2,704 6.7 -6.3°
Maximum altitude 18:02:23 69° 265° (W) 1,023 4.4 -7.3°
Drops below altitude 10° 18:08:28 10° 184° (S) 2,688 6.2 -8.3°
Sets 18:10:58 0° 182° (S) 3,634 6.9 -8.7°
